TimeCDT,TemperatureF,Dew PointF,Humidity,Sea Level PressureIn,VisibilityMPH,Wind Direction,Wind SpeedMPH,Gust SpeedMPH,PrecipitationIn,Events,Conditions,WindDirDegrees,DateUTC
12:08 AM,57.9,40.1,52,-9999,-9999.0,South,12.7,-,N/A,,Unknown,170,2013-10-10 05:08:00
12:28 AM,60.1,41.2,50,-9999,-9999.0,SSE,12.7,-,0.79,,Unknown,160,2013-10-10 05:28:00
12:48 AM,62.1,41.2,46,-9999,-9999.0,South,16.1,-,N/A,,Unknown,170,2013-10-10 05:48:00
1:08 AM,63.0,42.1,46,-9999,-9999.0,South,17.3,-,N/A,,Unknown,170,2013-10-10 06:08:00
1:28 AM,62.1,42.1,48,-9999,-9999.0,South,15.0,-,N/A,,Unknown,170,2013-10-10 06:28:00
1:48 AM,62.1,43.2,50,-9999,-9999.0,South,15.0,-,N/A,,Unknown,170,2013-10-10 06:48:00
2:08 AM,61.0,43.2,52,-9999,-9999.0,South,13.8,-,N/A,,Unknown,180,2013-10-10 07:08:00
2:28 AM,61.0,43.2,52,-9999,-9999.0,South,12.7,-,N/A,,Unknown,180,2013-10-10 07:28:00
2:48 AM,60.1,43.2,54,-9999,-9999.0,South,12.7,-,N/A,,Unknown,180,2013-10-10 07:48:00
3:08 AM,59.0,43.2,56,-9999,-9999.0,South,11.5,-,N/A,,Unknown,180,2013-10-10 08:08:00
3:28 AM,59.0,43.2,56,-9999,-9999.0,South,12.7,-,N/A,,Unknown,180,2013-10-10 08:28:00
3:48 AM,57.0,44.1,62,-9999,-9999.0,South,10.4,-,N/A,,Unknown,170,2013-10-10 08:48:00
4:08 AM,55.9,44.1,64,-9999,-9999.0,South,10.4,-,N/A,,Unknown,170,2013-10-10 09:08:00
4:28 AM,55.0,43.2,64,-9999,-9999.0,South,10.4,-,N/A,,Unknown,170,2013-10-10 09:28:00
4:48 AM,55.0,43.2,64,-9999,-9999.0,South,11.5,-,N/A,,Unknown,170,2013-10-10 09:48:00
5:08 AM,55.0,43.2,64,-9999,-9999.0,South,9.2,-,N/A,,Unknown,180,2013-10-10 10:08:00
5:28 AM,55.0,42.1,62,-9999,-9999.0,South,10.4,-,N/A,,Unknown,180,2013-10-10 10:28:00
5:48 AM,55.0,41.2,60,-9999,-9999.0,South,11.5,-,N/A,,Unknown,190,2013-10-10 10:48:00
6:08 AM,55.0,41.2,60,-9999,-9999.0,South,12.7,-,N/A,,Unknown,190,2013-10-10 11:08:00
6:28 AM,55.9,41.2,58,-9999,-9999.0,South,12.7,-,N/A,,Unknown,190,2013-10-10 11:28:00
6:48 AM,55.9,41.2,58,-9999,-9999.0,SSW,11.5,-,N/A,,Unknown,200,2013-10-10 11:48:00
7:08 AM,55.0,41.2,60,-9999,-9999.0,South,10.4,-,N/A,,Unknown,190,2013-10-10 12:08:00
7:28 AM,55.0,41.2,60,-9999,-9999.0,SSW,10.4,-,N/A,,Unknown,210,2013-10-10 12:28:00
7:48 AM,53.1,42.1,66,-9999,-9999.0,WSW,8.1,-,N/A,,Unknown,240,2013-10-10 12:48:00
8:08 AM,51.1,41.2,69,-9999,-9999.0,SW,5.8,-,N/A,,Unknown,230,2013-10-10 13:08:00
8:28 AM,52.0,40.1,64,-9999,-9999.0,SW,8.1,-,N/A,,Unknown,220,2013-10-10 13:28:00
8:48 AM,55.0,41.2,60,-9999,-9999.0,South,8.1,-,N/A,,Unknown,190,2013-10-10 13:48:00
9:08 AM,57.0,42.1,57,-9999,-9999.0,South,9.2,-,N/A,,Unknown,180,2013-10-10 14:08:00
9:28 AM,59.0,43.2,56,-9999,-9999.0,South,12.7,-,N/A,,Unknown,170,2013-10-10 14:28:00
9:48 AM,62.1,45.1,54,-9999,-9999.0,South,10.4,-,N/A,,Unknown,180,2013-10-10 14:48:00
10:08 AM,64.9,45.1,49,-9999,-9999.0,South,15.0,-,N/A,,Unknown,180,2013-10-10 15:08:00
10:28 AM,68.0,47.1,47,-9999,-9999.0,South,13.8,-,N/A,,Unknown,180,2013-10-10 15:28:00
10:48 AM,69.1,46.0,44,-9999,-9999.0,South,16.1,-,N/A,,Unknown,180,2013-10-10 15:48:00
11:08 AM,71.1,48.0,44,-9999,-9999.0,SSE,17.3,-,N/A,,Unknown,160,2013-10-10 16:08:00
11:28 AM,72.0,46.0,40,-9999,-9999.0,South,18.4,-,N/A,,Unknown,180,2013-10-10 16:28:00
11:48 AM,75.0,48.0,38,-9999,-9999.0,South,21.9,-,N/A,,Unknown,170,2013-10-10 16:48:00
12:08 PM,75.9,49.1,39,-9999,-9999.0,SSE,18.4,-,N/A,,Unknown,160,2013-10-10 17:08:00
12:28 PM,77.0,49.1,37,-9999,-9999.0,SSE,18.4,-,N/A,,Unknown,160,2013-10-10 17:28:00
12:48 PM,78.1,48.0,35,-9999,-9999.0,South,20.7,-,N/A,,Unknown,170,2013-10-10 17:48:00
1:08 PM,79.0,47.1,32,-9999,-9999.0,South,18.4,-,N/A,,Unknown,180,2013-10-10 18:08:00
1:28 PM,79.0,47.1,32,-9999,-9999.0,South,18.4,-,N/A,,Unknown,180,2013-10-10 18:28:00
1:48 PM,80.1,47.1,31,-9999,-9999.0,South,17.3,-,N/A,,Unknown,180,2013-10-10 18:48:00
2:08 PM,81.0,48.0,31,-9999,-9999.0,South,20.7,-,N/A,,Unknown,170,2013-10-10 19:08:00
2:28 PM,81.0,47.1,30,-9999,-9999.0,South,25.3,-,N/A,,Unknown,170,2013-10-10 19:28:00
2:48 PM,82.0,47.1,29,-9999,-9999.0,South,20.7,-,N/A,,Unknown,180,2013-10-10 19:48:00
3:08 PM,82.0,46.0,28,-9999,-9999.0,South,21.9,-,N/A,,Unknown,180,2013-10-10 20:08:00
3:28 PM,82.9,47.1,29,-9999,-9999.0,South,24.2,-,N/A,,Unknown,170,2013-10-10 20:28:00
3:48 PM,84.9,46.0,26,-9999,-9999.0,SSE,27.6,-,N/A,,Unknown,160,2013-10-10 20:48:00
4:08 PM,-9999,-9999,N/A,31.62,-9999.0,North,52.9,-,N/A,,Unknown,0,2013-10-10 21:08:00
4:28 PM,84.0,47.1,28,-9999,-9999.0,SSE,29.9,-,N/A,,Unknown,160,2013-10-10 21:28:00
4:48 PM,82.9,46.0,27,-9999,-9999.0,SSE,26.5,-,N/A,,Unknown,160,2013-10-10 21:48:00
5:08 PM,82.9,47.1,29,-9999,-9999.0,SSE,29.9,-,N/A,,Unknown,160,2013-10-10 22:08:00
5:28 PM,82.0,48.0,30,-9999,-9999.0,SSE,27.6,-,N/A,,Unknown,150,2013-10-10 22:28:00
5:48 PM,80.1,46.0,30,-9999,-9999.0,SSE,34.5,-,N/A,,Unknown,150,2013-10-10 22:48:00
6:08 PM,80.1,48.0,32,-9999,-9999.0,SSE,29.9,-,N/A,,Unknown,150,2013-10-10 23:08:00
6:28 PM,78.1,49.1,36,-9999,-9999.0,SSE,33.4,-,N/A,,Unknown,150,2013-10-10 23:28:00
6:48 PM,77.0,49.1,37,-9999,-9999.0,SSE,32.2,-,N/A,,Unknown,150,2013-10-10 23:48:00
7:08 PM,75.0,51.1,43,-9999,-9999.0,SSE,32.2,-,N/A,,Unknown,150,2013-10-11 00:08:00
7:28 PM,68.0,50.2,53,-9999,-9999.0,WSW,21.9,-,N/A,,Unknown,250,2013-10-11 00:28:00
7:48 PM,60.1,47.1,62,-9999,-9999.0,WSW,16.1,-,N/A,,Unknown,250,2013-10-11 00:48:00
8:08 PM,59.0,47.1,65,-9999,-9999.0,West,11.5,-,N/A,,Unknown,260,2013-10-11 01:08:00
8:28 PM,59.0,46.0,62,-9999,-9999.0,West,5.8,-,N/A,,Unknown,260,2013-10-11 01:28:00
8:48 PM,59.0,44.1,58,-9999,-9999.0,West,5.8,-,N/A,,Unknown,260,2013-10-11 01:48:00
9:08 PM,57.0,44.1,62,-9999,-9999.0,SSE,8.1,-,N/A,,Unknown,160,2013-10-11 02:08:00
9:28 PM,55.0,44.1,67,-9999,-9999.0,SSE,11.5,-,N/A,,Unknown,150,2013-10-11 02:28:00
9:48 PM,55.9,43.2,62,-9999,-9999.0,South,8.1,-,N/A,,Unknown,190,2013-10-11 02:48:00
10:08 PM,55.9,46.0,69,-9999,-9999.0,South,8.1,-,N/A,,Unknown,170,2013-10-11 03:08:00
10:28 PM,61.0,41.2,48,-9999,-9999.0,SW,8.1,-,N/A,,Unknown,220,2013-10-11 03:28:00
10:48 PM,60.1,40.1,48,-9999,-9999.0,SW,4.6,-,N/A,,Unknown,230,2013-10-11 03:48:00
11:08 PM,60.1,38.1,44,-9999,-9999.0,SSW,4.6,-,N/A,,Unknown,210,2013-10-11 04:08:00
11:28 PM,59.0,37.0,44,-9999,-9999.0,SSW,6.9,-,N/A,,Unknown,200,2013-10-11 04:28:00
11:48 PM,59.0,36.1,42,-9999,-9999.0,SSW,5.8,-,N/A,,Unknown,210,2013-10-11 04:48:00